#timestamp,LO_Frequency,Hit,StdDev 
1512453615.6,286046974.2,N
1512453635.5,286046972.0,N
1512453655.3,286046973.2,N
1512453675.1,286046974.0,N
1512453695.9,286046971.6,Y
1512453715.7,286046981.3,P
1512453735.5,286046977.6,P
1512453755.4,286046978.2,P
1512453775.2,286046977.8,Y
1512453795.0,286047000.9,P
1512453795.9,286047000.9,N
1512453815.8,286046997.9,N
1512453835.6,286047002.2,N
1512453855.4,286047003.5,N
1512453875.3,286047004.7,N
1512453895.1,286047008.9,N
1512453896.0,286047008.9,N
1512453915.8,286047008.3,N
1512453935.7,286047010.8,N
1512453955.5,286047015.1,N
1512453975.3,286047016.5,N
1512453995.1,286047019.1,N
1512454015.9,286047019.5,N
1512454035.7,286047018.5,N
1512454055.5,286047022.0,N
1512454075.4,286047023.5,N
1512454095.2,286047025.1,N
1512454115.0,286047030.0,N
1512454115.9,286047030.0,N
1512454135.8,286047028.6,N
1512454155.6,286047030.2,N
1512454175.4,286047027.0,N
1512454195.3,286047031.5,N
1512454215.1,286047031.5,N
1512454216.0,286047031.5,N
1512454235.8,286047029.6,N
1512454255.7,286047031.8,N
1512454275.5,286047034.3,N
1512454295.3,286047033.3,N
1512454315.2,286047035.2,Y
1512454335.9,286047019.1,P
1512454355.7,286047019.8,P
1512454375.5,286047018.5,P
1512454395.4,286047021.9,Y
1512454415.2,286047001.7,P
1512454435.0,286047001.8,N
1512454435.9,286047001.8,N
1512454455.8,286047003.4,N
1512454475.6,286047005.6,N
1512454495.4,286047005.1,N
1512454515.3,286047006.1,N
1512454535.1,286047009.0,N
1512454555.8,286047003.4,N
1512454575.7,286047001.3,N
1512454595.5,286047003.0,N
1512454615.3,286047008.4,N
1512454635.2,286047006.7,N
1512454655.9,286047007.3,N
1512454675.7,286047003.0,N
1512454695.5,286047006.8,N
1512454715.4,286047007.0,N
1512454735.2,286047006.5,N
1512454755.0,286047004.8,N
1512454755.9,286047004.8,N
1512454775.8,286047004.7,N
1512454795.6,286047008.1,N
1512454815.4,286047011.7,Y
1512454835.3,286047008.3,P
1512454855.1,286047010.3,P
1512454875.8,286047013.6,P
1512454895.7,286047012.7,Y
1512454915.5,286047004.0,P
1512454935.3,286047005.3,N
1512454955.2,286047005.7,N
1512454975.9,286047009.2,Y
1512454995.7,286047004.4,P
1512455015.6,286047003.9,P
1512455035.4,286047006.9,P
1512455055.2,286047009.6,Y
1512455075.1,286047008.0,P
1512455076.0,286047008.0,P
1512455095.8,286047008.7,P
1512455115.6,286047010.0,Y
1512455135.5,286047003.3,P
1512455155.3,286047004.6,N
1512455175.1,286047006.6,P
1512455195.9,286047005.0,Y
1512455215.7,286046998.4,P
1512455235.5,286047002.3,N
1512455255.4,286047001.6,N
1512455275.2,286047006.6,N
1512455295.0,286047006.9,N
1512455295.9,286047006.9,N
1512455315.8,286047003.3,N
1512455335.6,286047003.4,N
1512455355.4,286047001.9,N
1512455375.3,286047005.2,N
1512455395.1,286047005.4,N
1512455396.0,286047005.4,N
1512455415.8,286047003.3,N
1512455435.7,286047004.7,N
1512455455.5,286047007.0,Y
1512455475.3,286047001.1,P
1512455495.2,286046997.8,N
1512455515.9,286046997.1,N
1512455535.7,286046996.7,N
1512455555.6,286046997.6,N
1512455575.4,286046998.0,N
1512455595.2,286046998.6,N
1512455615.0,286046995.4,N
1512455615.9,286046995.4,N
1512455635.8,286046995.0,N
1512455655.6,286046995.4,N
1512455675.4,286046997.0,N
1512455695.3,286046997.5,N
1512455715.1,286046996.9,N
1512455716.0,286046996.9,N
1512455735.8,286046995.5,N
1512455755.7,286046995.5,N
1512455775.5,286046997.9,N
1512455795.3,286046993.0,Y
1512455815.2,286046995.8,P
1512455835.9,286046994.6,P
1512455855.7,286046988.9,P
1512455875.6,286046988.1,Y
1512455895.4,286046992.6,P
1512455915.2,286046992.5,P
1512455935.1,286046993.9,P
1512455936.0,286046993.9,Y
1512455955.8,286046996.7,P
1512455975.6,286046994.4,P
1512455995.5,286046994.3,P
1512456015.3,286046994.6,Y
1512456035.1,286046996.5,P
1512456055.9,286046997.2,P
1512456075.7,286046995.4,P
1512456095.5,286046992.7,Y
1512456115.4,286046997.2,P
1512456135.2,286046996.3,P
1512456155.0,286046992.5,P
1512456155.9,286046992.5,Y
1512456175.8,286046996.4,P
1512456195.6,286046995.8,P
1512456215.4,286046993.7,P
1512456235.3,286046994.6,Y
1512456255.1,286046998.8,P
1512456275.8,286046996.6,N
1512456295.7,286046997.6,N
1512456315.5,286046995.9,Y
1512456335.3,286046997.8,P
1512456355.2,286046991.8,P
1512456375.9,286046994.7,N
1512456395.7,286046994.1,N
1512456415.6,286046991.7,Y
1512456435.4,286046996.5,P
1512456455.2,286046999.5,N
1512456475.1,286046997.9,N
1512456476.0,286046997.9,N
1512456495.8,286046995.8,N
1512456515.6,286046990.1,Y
1512456535.5,286046995.7,P
1512456555.3,286046998.6,N
1512456575.1,286047000.9,N
1512456595.9,286046995.0,N
1512456615.7,286046999.6,N
1512456635.5,286046994.9,N
1512456655.4,286046997.1,N
1512456675.2,286046995.0,N
1512456695.0,286046994.7,N
1512456695.9,286046994.7,N
1512456715.8,286046994.2,N
1512456735.6,286046992.8,Y
1512456755.4,286046995.5,P
1512456775.3,286046995.6,P
1512456795.1,286046996.7,P
1512456796.0,286046996.7,Y
1512456815.8,286047000.3,P
1512456835.7,286047002.3,N
1512456855.5,286047001.6,N
1512456875.3,286047005.1,N
1512456895.2,286047002.8,N
1512456915.9,286047002.8,N
1512456935.7,286047001.6,N
1512456955.5,286047000.9,N
1512456975.4,286047000.1,N
1512456995.2,286047002.3,N
1512457015.0,286047001.2,N
1512457015.9,286047001.2,N
1512457035.8,286046998.0,N
1512457055.6,286046999.2,N
1512457075.4,286046997.3,N
1512457095.3,286046999.3,N
1512457115.1,286046999.0,N
1512457116.0,286046999.0,N
1512457135.8,286046995.3,N
1512457155.7,286046998.6,N
1512457175.5,286047000.4,N
1512457195.3,286047001.1,N
